Location: Karwodrza
(49.9217°N, 21.0454°E)
Time: 01:42:14
(UTC+01:00)

ISS - Pass Details

Date: 27 January 2019
Orbit: 403 x 411 km, 51.6° (Epoch: 20 February)

Event Time Altitude Azimuth Distance (km) Brightness Sun altitude
Rises 18:22:28 0° 253° (WSW) 2,332 1.6 -19.4°
Reaches altitude 10° 18:24:33 10° 254° (WSW) 1,474 0.2 -19.7°
Enters shadow 18:27:46 85° 272° (W) 418 -3.9 -20.2°
